Weather History for Bryce Canyon, UT

Change the Weather History Date:

Monday, November 25, 2013

  Actual Average Record
Temperature  
Mean Temperature 26 °F -  
Max Temperature 37 °F 42 °F 58 °F (1970)
Min Temperature 14 °F 16 °F -17 °F (2010)
Degree Days  
Heating Degree Days 40    
Moisture  
Dew Point 18 °F    
Average Humidity 84    
Maximum Humidity 96    
Minimum Humidity 55    
Precipitation  
Precipitation 0.00 in - - ()
Sea Level Pressure  
Sea Level Pressure 30.27 in    
Wind  
Wind Speed 9 mph (NW)    
Max Wind Speed 15 mph    
Max Gust Speed -    
Visibility 8 miles    
Events Fog    
Averages and records for this station are not official NWS values.
T = Trace of Precipitation, MM = Missing Value Source: NWS Daily Summary

Daily Weather History Graph

Daily Weather History Graph

Search for Another Location

Airport:

Trip Planner

Search our weather history database for the weather conditions in past years. The results will help you decide how hot, cold, wet, or windy it might be!

Date:

Astronomy

Nov. 25, 2013 Rise Set
Actual Time 7:19 AM MST 5:11 PM MST
Civil Twilight 6:50 AM MST 5:40 PM MST
Nautical Twilight 6:18 AM MST 6:12 PM MST
Astronomical Twilight 5:47 AM MST 6:43 PM MST
Moon No Moon Rise 12:42 PM MST (11/25)
Length of Visible Light 10h 49m
Length of Day
9h 52m
Waning Gibbous, 50% of the Moon is Illuminated
Nov 25
Waning Gibbous
Nov 25
Last Quarter
Dec 2
New
Dec 9
First Quarter
Dec 17
Full

Hourly Weather History & Observations

Time (MST) Temp. Windchill Dew Point Humidity Pressure Visibility Wind Dir Wind Speed Gust Speed Precip Events Conditions
12:41 AM 26.1 °F 14.0 °F 24.1 °F 92% 30.18 in 10.0 mi NW 15.0 mph - N/A   Scattered Clouds
12:53 AM 25.0 °F 13.1 °F 23.0 °F 92% 30.13 in 10.0 mi NW 13.8 mph - N/A   Scattered Clouds
1:53 AM 23.0 °F 13.1 °F 21.0 °F 92% 30.14 in 10.0 mi NW 9.2 mph - N/A   Clear
2:53 AM 21.9 °F 11.7 °F 19.0 °F 89% 30.15 in 10.0 mi NNW 9.2 mph - N/A   Clear
3:53 AM 17.1 °F 6.6 °F 15.1 °F 92% 30.19 in 10.0 mi NW 8.1 mph - N/A   Clear
4:53 AM 16.0 °F 8.8 °F 15.1 °F 96% 30.21 in 4.0 mi NNW 4.6 mph - N/A   Clear
5:53 AM 18.0 °F 6.9 °F 16.0 °F 92% 30.22 in 10.0 mi West 9.2 mph - N/A   Clear
6:33 AM 14.0 °F 8.2 °F 12.0 °F 92% 30.23 in 2.0 mi WNW 3.5 mph - N/A   Partly Cloudy
6:53 AM 15.1 °F 9.4 °F 12.9 °F 91% 30.25 in 1.2 mi West 3.5 mph - N/A   Partly Cloudy
6:59 AM 16.0 °F 10.4 °F 14.0 °F 92% 30.24 in 0.8 mi Variable 3.5 mph - N/A   Mist
7:11 AM 14.0 °F 3.9 °F 12.9 °F 95% 30.24 in 0.2 mi WSW 6.9 mph - N/A Fog Light Freezing Fog
7:33 AM 14.0 °F 2.9 °F 12.0 °F 92% 30.25 in 1.0 mi West 8.1 mph - N/A   Mist
7:38 AM 16.0 °F 5.3 °F 14.0 °F 92% 30.25 in 3.0 mi West 8.1 mph - N/A   Scattered Clouds
7:53 AM 16.0 °F 5.3 °F 14.0 °F 92% 30.27 in 8.0 mi NW 8.1 mph - N/A   Partly Cloudy
8:53 AM 21.0 °F 11.4 °F 19.0 °F 92% 30.28 in 10.0 mi West 8.1 mph - N/A   Clear
9:53 AM 25.0 °F 14.2 °F 21.0 °F 85% 30.26 in 10.0 mi West 11.5 mph - N/A   Clear
10:53 AM 28.0 °F 17.5 °F 23.0 °F 81% 30.27 in 10.0 mi West 12.7 mph - N/A   Clear
11:53 AM 33.1 °F 26.1 °F 24.1 °F 70% 30.25 in 10.0 mi WNW 8.1 mph - N/A   Clear
12:53 PM 35.1 °F 27.4 °F 25.0 °F 67% 30.22 in 10.0 mi North 10.4 mph - N/A   Clear
1:53 PM 36.0 °F 29.6 °F 24.1 °F 62% 30.22 in 10.0 mi NNE 8.1 mph - N/A   Clear
2:53 PM 37.9 °F 34.4 °F 23.0 °F 55% 30.23 in 10.0 mi NNW 4.6 mph - N/A   Clear
3:53 PM 36.0 °F 29.0 °F 24.1 °F 62% 30.27 in 10.0 mi NW 9.2 mph - N/A   Clear
4:53 PM 33.1 °F 24.9 °F 24.1 °F 70% 30.30 in 10.0 mi WNW 10.4 mph - N/A   Clear
5:53 PM 28.9 °F 22.8 °F 23.0 °F 78% 30.32 in 10.0 mi NW 5.8 mph - N/A   Clear
6:53 PM 26.1 °F 19.4 °F 21.0 °F 81% 30.38 in 10.0 mi NNW 5.8 mph - N/A   Clear
7:53 PM 26.1 °F 15.6 °F 21.0 °F 81% 30.39 in 10.0 mi NW 11.5 mph - N/A   Clear
8:53 PM 21.0 °F 10.6 °F 17.1 °F 85% 30.40 in 10.0 mi WNW 9.2 mph - N/A   Clear
9:53 PM 15.1 °F - 12.0 °F 88% 30.43 in 10.0 mi Calm Calm - N/A   Clear
10:53 PM 15.1 °F 9.4 °F 12.0 °F 88% 30.42 in 10.0 mi Variable 3.5 mph - N/A   Clear
11:53 PM 14.0 °F 2.9 °F 10.9 °F 88% 30.39 in 10.0 mi NW 8.1 mph - N/A   Clear